Time,TemperatureF,DewpointF,PressureIn,WindDirection,WindDirectionDegrees,WindSpeedMPH,WindSpeedGustMPH,Humidity,HourlyPrecipIn,Conditions,Clouds,dailyrainin,SoftwareType,DateUTC
2013-02-05 00:00:00,18.8,5.7,29.88,SW,232,2.0,5.0,56,0.00,,CLR,0.00,VWS V14.01,2013-02-05 05:00:00,
2013-02-05 00:05:00,18.7,6.0,29.88,WSW,256,3.0,3.0,57,0.00,,CLR,0.00,VWS V14.01,2013-02-05 05:05:00,
2013-02-05 00:10:00,18.7,6.0,29.88,West,281,0.0,5.0,57,0.00,,CLR,0.00,VWS V14.01,2013-02-05 05:10:00,
2013-02-05 00:15:00,18.5,5.8,29.88,West,260,1.0,6.0,57,0.00,,CLR,0.00,VWS V14.01,2013-02-05 05:15:00,
2013-02-05 00:20:00,18.4,6.1,29.88,West,270,1.0,4.0,58,0.00,,CLR,0.00,VWS V14.01,2013-02-05 05:20:00,
2013-02-05 00:25:00,18.3,6.0,29.88,SSW,205,1.0,5.0,58,0.00,,CLR,0.00,VWS V14.01,2013-02-05 05:25:00,
2013-02-05 00:30:00,18.3,6.0,29.88,West,277,2.0,4.0,58,0.00,,CLR,0.00,VWS V14.01,2013-02-05 05:30:00,
2013-02-05 00:35:00,18.2,6.3,29.88,WSW,245,1.0,2.0,59,0.00,,CLR,0.00,VWS V14.01,2013-02-05 05:35:00,
2013-02-05 00:40:00,18.1,6.2,29.88,North,349,2.0,5.0,59,0.00,,CLR,0.00,VWS V14.01,2013-02-05 05:40:00,
2013-02-05 00:45:00,18.1,6.6,29.88,SSW,207,1.0,3.0,60,0.00,,CLR,0.00,VWS V14.01,2013-02-05 05:45:00,
2013-02-05 00:50:00,17.9,6.4,29.88,WNW,293,1.0,2.0,60,0.00,,CLR,0.00,VWS V14.01,2013-02-05 05:50:00,
2013-02-05 00:55:00,17.9,6.4,29.88,West,264,1.0,4.0,60,0.00,,CLR,0.00,VWS V14.01,2013-02-05 05:55:00,
2013-02-05 01:00:00,17.9,6.4,29.88,WSW,249,2.0,5.0,60,0.00,,CLR,0.00,VWS V14.01,2013-02-05 06:00:00,
2013-02-05 01:05:00,17.9,6.7,29.89,SSW,197,2.0,2.0,61,0.00,,CLR,0.00,VWS V14.01,2013-02-05 06:05:00,
2013-02-05 01:10:00,18.0,6.8,29.89,SSE,163,1.0,4.0,61,0.00,,CLR,0.00,VWS V14.01,2013-02-05 06:10:00,
2013-02-05 01:15:00,18.1,6.9,29.89,NNE,16,1.0,2.0,61,0.00,,CLR,0.00,VWS V14.01,2013-02-05 06:15:00,
2013-02-05 01:20:00,18.2,7.0,29.89,WSW,257,0.0,3.0,61,0.00,,CLR,0.00,VWS V14.01,2013-02-05 06:20:00,
2013-02-05 01:25:00,18.3,7.1,29.89,WSW,245,1.0,3.0,61,0.00,,CLR,0.00,VWS V14.01,2013-02-05 06:25:00,
2013-02-05 01:30:00,18.4,7.2,29.89,SW,224,1.0,1.0,61,0.00,,CLR,0.00,VWS V14.01,2013-02-05 06:30:00,
2013-02-05 01:35:00,18.4,7.2,29.90,WSW,243,0.0,2.0,61,0.00,,CLR,0.00,VWS V14.01,2013-02-05 06:35:00,
2013-02-05 01:40:00,18.5,7.3,29.90,WSW,249,0.0,2.0,61,0.00,,CLR,0.00,VWS V14.01,2013-02-05 06:40:00,
2013-02-05 01:45:00,18.5,7.3,29.90,SW,228,3.0,3.0,61,0.00,,CLR,0.00,VWS V14.01,2013-02-05 06:45:00,
2013-02-05 01:50:00,18.5,7.7,29.90,West,264,1.0,3.0,62,0.00,,CLR,0.00,VWS V14.01,2013-02-05 06:50:00,
2013-02-05 01:55:00,18.6,7.4,29.90,SSE,160,1.0,3.0,61,0.00,,CLR,0.00,VWS V14.01,2013-02-05 06:55:00,
2013-02-05 02:00:00,18.7,7.9,29.90,SSW,212,0.0,2.0,62,0.00,,CLR,0.00,VWS V14.01,2013-02-05 07:00:00,
2013-02-05 02:05:00,18.7,7.9,29.90,SW,215,1.0,2.0,62,0.00,,CLR,0.00,VWS V14.01,2013-02-05 07:05:00,
2013-02-05 02:10:00,18.7,7.9,29.90,SW,236,1.0,3.0,62,0.00,,CLR,0.00,VWS V14.01,2013-02-05 07:10:00,
2013-02-05 02:15:00,18.8,7.9,29.90,WSW,257,0.0,1.0,62,0.00,,CLR,0.00,VWS V14.01,2013-02-05 07:15:00,
2013-02-05 02:20:00,18.8,8.0,29.90,WSW,257,0.0,1.0,62,0.00,,,0.00,weatherlink.com 1.10,2013-02-05 07:20:00,
2013-02-05 02:25:00,18.9,8.1,29.90,SSW,204,0.0,2.0,62,0.00,,CLR,0.00,VWS V14.01,2013-02-05 07:25:00,
2013-02-05 02:30:00,18.9,8.1,29.90,WSW,239,1.0,2.0,62,0.00,,CLR,0.00,VWS V14.01,2013-02-05 07:30:00,
2013-02-05 02:35:00,19.0,8.1,29.90,WSW,250,0.0,1.0,62,0.00,,CLR,0.00,VWS V14.01,2013-02-05 07:35:00,
2013-02-05 02:40:00,19.0,8.1,29.90,SSW,212,0.0,1.0,62,0.00,,CLR,0.00,VWS V14.01,2013-02-05 07:40:00,
2013-02-05 02:45:00,19.1,8.2,29.90,SW,232,0.0,1.0,62,0.00,,CLR,0.00,VWS V14.01,2013-02-05 07:45:00,
2013-02-05 02:50:00,19.2,8.3,29.90,SSE,155,1.0,3.0,62,0.00,,CLR,0.00,VWS V14.01,2013-02-05 07:50:00,
2013-02-05 02:55:00,19.2,8.3,29.89,WSW,253,0.0,2.0,62,0.00,,CLR,0.00,VWS V14.01,2013-02-05 07:55:00,
2013-02-05 03:00:00,19.2,8.3,29.90,SW,222,2.0,4.0,62,0.00,,CLR,0.00,VWS V14.01,2013-02-05 08:00:00,
2013-02-05 03:05:00,19.1,8.2,29.90,SW,226,3.0,3.0,62,0.00,,CLR,0.00,VWS V14.01,2013-02-05 08:05:00,
2013-02-05 03:10:00,19.1,8.2,29.90,WNW,300,1.0,2.0,62,0.00,,CLR,0.00,VWS V14.01,2013-02-05 08:10:00,
2013-02-05 03:15:00,19.1,8.2,29.90,SW,225,0.0,1.0,62,0.00,,CLR,0.00,VWS V14.01,2013-02-05 08:15:00,
2013-02-05 03:20:00,19.1,8.2,29.90,SW,218,1.0,1.0,62,0.00,,CLR,0.00,VWS V14.01,2013-02-05 08:20:00,
2013-02-05 03:25:00,19.1,8.2,29.90,WSW,245,0.0,3.0,62,0.00,,CLR,0.00,VWS V14.01,2013-02-05 08:25:00,
2013-02-05 03:30:00,19.2,8.3,29.90,SW,224,0.0,5.0,62,0.00,,CLR,0.00,VWS V14.01,2013-02-05 08:30:00,
2013-02-05 03:35:00,19.2,8.3,29.90,WSW,240,0.0,2.0,62,0.00,,CLR,0.00,VWS V14.01,2013-02-05 08:35:00,
2013-02-05 03:40:00,19.2,8.3,29.90,West,271,2.0,2.0,62,0.00,,CLR,0.00,VWS V14.01,2013-02-05 08:40:00,
2013-02-05 03:45:00,19.2,8.3,29.90,West,271,0.0,1.0,62,0.00,,CLR,0.00,VWS V14.01,2013-02-05 08:45:00,
2013-02-05 03:50:00,19.2,8.3,29.90,WSW,246,1.0,4.0,62,0.00,,CLR,0.00,VWS V14.01,2013-02-05 08:50:00,
2013-02-05 03:55:00,19.3,8.4,29.91,SW,236,2.0,3.0,62,0.00,,CLR,0.00,VWS V14.01,2013-02-05 08:55:00,
2013-02-05 04:00:00,19.3,8.4,29.91,West,278,0.0,3.0,62,0.00,,CLR,0.00,VWS V14.01,2013-02-05 09:00:00,
2013-02-05 04:05:00,19.3,8.4,29.90,West,278,0.0,1.0,62,0.00,,CLR,0.00,VWS V14.01,2013-02-05 09:05:00,
2013-02-05 04:10:00,19.3,8.4,29.90,WSW,238,1.0,2.0,62,0.00,,CLR,0.00,VWS V14.01,2013-02-05 09:10:00,
2013-02-05 04:15:00,19.3,8.4,29.90,WSW,238,0.0,1.0,62,0.00,,CLR,0.00,VWS V14.01,2013-02-05 09:15:00,
2013-02-05 04:20:00,19.3,8.4,29.90,SSW,211,0.0,1.0,62,0.00,,CLR,0.00,VWS V14.01,2013-02-05 09:20:00,
2013-02-05 04:25:00,19.3,8.4,29.91,SW,214,1.0,1.0,62,0.00,,CLR,0.00,VWS V14.01,2013-02-05 09:25:00,
2013-02-05 04:30:00,19.3,8.8,29.91,SW,214,0.0,0.0,63,0.00,,CLR,0.00,VWS V14.01,2013-02-05 09:30:00,
2013-02-05 04:35:00,19.2,8.3,29.91,SW,226,0.0,2.0,62,0.00,,CLR,0.00,VWS V14.01,2013-02-05 09:35:00,
2013-02-05 04:40:00,19.2,8.7,29.91,SW,224,0.0,0.0,63,0.00,,CLR,0.00,VWS V14.01,2013-02-05 09:40:00,
2013-02-05 04:45:00,19.2,9.0,29.91,SW,224,0.0,0.0,64,0.00,,CLR,0.00,VWS V14.01,2013-02-05 09:45:00,
2013-02-05 04:50:00,19.2,8.7,29.91,SW,229,0.0,1.0,63,0.00,,CLR,0.00,VWS V14.01,2013-02-05 09:50:00,
2013-02-05 04:55:00,19.1,8.9,29.92,SW,229,0.0,0.0,64,0.00,,CLR,0.00,VWS V14.01,2013-02-05 09:55:00,
2013-02-05 05:00:00,19.1,8.6,29.92,SW,229,0.0,1.0,63,0.00,,CLR,0.00,VWS V14.01,2013-02-05 10:00:00,
2013-02-05 05:05:00,19.1,8.9,29.91,SW,229,0.0,0.0,64,0.00,,CLR,0.00,VWS V14.01,2013-02-05 10:05:00,
2013-02-05 05:10:00,19.1,9.3,29.91,SW,229,0.0,0.0,65,0.00,,CLR,0.00,VWS V14.01,2013-02-05 10:10:00,
2013-02-05 05:15:00,19.1,8.6,29.91,SW,229,0.0,1.0,63,0.00,,CLR,0.00,VWS V14.01,2013-02-05 10:15:00,
2013-02-05 05:20:00,19.2,9.7,29.91,SW,229,0.0,0.0,66,0.00,,CLR,0.00,VWS V14.01,2013-02-05 10:20:00,
2013-02-05 05:25:00,19.2,9.4,29.91,SW,229,0.0,0.0,65,0.00,,CLR,0.00,VWS V14.01,2013-02-05 10:25:00,
2013-02-05 05:30:00,19.2,9.7,29.91,SW,229,0.0,0.0,66,0.00,,CLR,0.00,VWS V14.01,2013-02-05 10:30:00,
2013-02-05 05:35:00,19.2,9.0,29.91,SW,229,0.0,0.0,64,0.00,,CLR,0.00,VWS V14.01,2013-02-05 10:35:00,
2013-02-05 05:40:00,19.2,9.7,29.91,SW,229,0.0,1.0,66,0.00,,CLR,0.00,VWS V14.01,2013-02-05 10:40:00,
2013-02-05 05:45:00,19.2,9.7,29.91,SW,228,0.0,0.0,66,0.00,,CLR,0.00,VWS V14.01,2013-02-05 10:45:00,
2013-02-05 05:50:00,19.2,9.4,29.91,SW,228,0.0,0.0,65,0.00,,CLR,0.00,VWS V14.01,2013-02-05 10:50:00,
2013-02-05 05:55:00,19.2,9.4,29.91,SW,228,0.0,0.0,65,0.00,,CLR,0.00,VWS V14.01,2013-02-05 10:55:00,
2013-02-05 06:00:00,19.1,9.3,29.91,SW,221,0.0,0.0,65,0.00,,CLR,0.00,VWS V14.01,2013-02-05 11:00:00,
2013-02-05 06:05:00,19.2,9.4,29.92,SW,221,0.0,1.0,65,0.00,,CLR,0.00,VWS V14.01,2013-02-05 11:05:00,
2013-02-05 06:10:00,19.2,9.4,29.92,SW,221,0.0,0.0,65,0.00,,CLR,0.00,VWS V14.01,2013-02-05 11:10:00,
2013-02-05 06:15:00,19.2,9.4,29.92,SW,221,0.0,0.0,65,0.00,,CLR,0.00,VWS V14.01,2013-02-05 11:15:00,
2013-02-05 06:20:00,19.2,10.1,29.92,SW,221,0.0,0.0,67,0.00,,CLR,0.00,VWS V14.01,2013-02-05 11:20:00,
2013-02-05 06:25:00,19.2,10.1,29.92,SW,221,0.0,0.0,67,0.00,,CLR,0.00,VWS V14.01,2013-02-05 11:25:00,
2013-02-05 06:30:00,19.2,10.1,29.92,SW,221,0.0,0.0,67,0.00,,CLR,0.00,VWS V14.01,2013-02-05 11:30:00,
2013-02-05 06:35:00,19.2,10.1,29.92,SW,220,0.0,1.0,67,0.00,,CLR,0.00,VWS V14.01,2013-02-05 11:35:00,
2013-02-05 06:40:00,19.2,10.1,29.92,SW,221,1.0,1.0,67,0.00,,CLR,0.00,VWS V14.01,2013-02-05 11:40:00,
2013-02-05 06:45:00,19.2,10.4,29.92,SW,221,0.0,0.0,68,0.00,,CLR,0.00,VWS V14.01,2013-02-05 11:45:00,
2013-02-05 06:50:00,19.2,10.7,29.92,SW,221,0.0,0.0,69,0.00,,CLR,0.00,VWS V14.01,2013-02-05 11:50:00,
2013-02-05 06:55:00,19.2,10.7,29.92,SW,221,0.0,0.0,69,0.00,,CLR,0.00,VWS V14.01,2013-02-05 11:55:00,
2013-02-05 07:00:00,19.2,11.0,29.93,SW,221,0.0,0.0,69,0.00,,,0.00,weatherlink.com 1.10,2013-02-05 12:00:00,
2013-02-05 07:05:00,19.2,11.0,29.93,SW,221,0.0,0.0,70,0.00,,CLR,0.00,VWS V14.01,2013-02-05 12:05:00,
2013-02-05 07:10:00,19.1,10.9,29.93,SW,221,0.0,0.0,70,0.00,,CLR,0.00,VWS V14.01,2013-02-05 12:10:00,
2013-02-05 07:15:00,19.1,10.6,29.93,SW,221,0.0,0.0,69,0.00,,CLR,0.00,VWS V14.01,2013-02-05 12:15:00,
2013-02-05 07:20:00,19.2,11.4,29.93,SW,221,0.0,0.0,71,0.00,,CLR,0.00,VWS V14.01,2013-02-05 12:20:00,
2013-02-05 07:25:00,19.2,11.4,29.93,SW,221,0.0,0.0,71,0.00,,CLR,0.00,VWS V14.01,2013-02-05 12:25:00,
2013-02-05 07:30:00,19.2,11.0,29.94,SW,221,0.0,0.0,70,0.00,,CLR,0.00,VWS V14.01,2013-02-05 12:30:00,
2013-02-05 07:35:00,19.2,11.0,29.94,SW,221,0.0,0.0,70,0.00,,CLR,0.00,VWS V14.01,2013-02-05 12:35:00,
2013-02-05 07:40:00,19.3,11.1,29.94,SW,221,0.0,0.0,70,0.00,,CLR,0.00,VWS V14.01,2013-02-05 12:40:00,
2013-02-05 07:45:00,19.4,11.6,29.95,SW,221,0.0,0.0,71,0.00,,CLR,0.00,VWS V14.01,2013-02-05 12:45:00,
2013-02-05 07:50:00,19.6,11.7,29.95,SW,221,0.0,0.0,71,0.00,,CLR,0.00,VWS V14.01,2013-02-05 12:50:00,
2013-02-05 07:55:00,19.8,11.3,29.96,SW,221,0.0,1.0,69,0.00,,CLR,0.00,VWS V14.01,2013-02-05 12:55:00,
2013-02-05 08:00:00,20.0,11.5,29.96,SW,221,0.0,0.0,69,0.00,,CLR,0.00,VWS V14.01,2013-02-05 13:00:00,
2013-02-05 08:05:00,20.2,11.4,29.96,West,278,2.0,2.0,68,0.00,,CLR,0.00,VWS V14.01,2013-02-05 13:05:00,
2013-02-05 08:10:00,20.4,11.5,29.96,West,262,0.0,0.0,68,0.00,,CLR,0.00,VWS V14.01,2013-02-05 13:10:00,
2013-02-05 08:15:00,20.6,11.4,29.96,WSW,238,0.0,2.0,67,0.00,,CLR,0.00,VWS V14.01,2013-02-05 13:15:00,
2013-02-05 08:20:00,20.8,11.2,29.96,WSW,248,0.0,2.0,66,0.00,,CLR,0.00,VWS V14.01,2013-02-05 13:20:00,
2013-02-05 08:25:00,21.0,11.4,29.96,SW,215,1.0,2.0,66,0.00,,CLR,0.00,VWS V14.01,2013-02-05 13:25:00,
2013-02-05 08:30:00,21.1,11.2,29.96,West,267,0.0,2.0,65,0.00,,CLR,0.00,VWS V14.01,2013-02-05 13:30:00,
2013-02-05 08:35:00,21.2,10.6,29.96,WSW,240,0.0,3.0,63,0.00,,CLR,0.00,VWS V14.01,2013-02-05 13:35:00,
2013-02-05 08:40:00,21.3,11.0,29.96,West,264,0.0,2.0,64,0.00,,CLR,0.00,VWS V14.01,2013-02-05 13:40:00,
2013-02-05 08:45:00,21.5,11.2,29.96,West,266,0.0,0.0,64,0.00,,CLR,0.00,VWS V14.01,2013-02-05 13:45:00,
2013-02-05 08:50:00,21.9,11.2,29.96,North,1,0.0,3.0,63,0.00,,CLR,0.00,VWS V14.01,2013-02-05 13:50:00,
2013-02-05 08:55:00,22.0,11.0,29.96,West,269,1.0,3.0,62,0.00,,,0.00,weatherlink.com 1.10,2013-02-05 13:55:00,
2013-02-05 09:00:00,22.2,11.2,29.96,NNE,12,1.0,2.0,62,0.00,,CLR,0.00,VWS V14.01,2013-02-05 14:00:00,
2013-02-05 09:05:00,22.3,10.5,29.96,West,262,1.0,2.0,60,0.00,,CLR,0.00,VWS V14.01,2013-02-05 14:05:00,
2013-02-05 09:10:00,22.4,9.9,29.96,SW,222,2.0,5.0,58,0.00,,CLR,0.00,VWS V14.01,2013-02-05 14:10:00,
2013-02-05 09:15:00,22.5,10.4,29.96,ESE,104,1.0,2.0,59,0.00,,CLR,0.00,VWS V14.01,2013-02-05 14:15:00,
2013-02-05 09:20:00,22.7,9.8,29.96,WNW,291,1.0,3.0,57,0.00,,CLR,0.00,VWS V14.01,2013-02-05 14:20:00,
2013-02-05 09:25:00,22.7,9.8,29.96,WSW,253,1.0,2.0,57,0.00,,CLR,0.00,VWS V14.01,2013-02-05 14:25:00,
2013-02-05 09:30:00,23.0,10.1,29.96,WSW,242,1.0,3.0,57,0.00,,CLR,0.00,VWS V14.01,2013-02-05 14:30:00,
2013-02-05 09:35:00,23.5,10.5,29.96,East,82,0.0,2.0,57,0.00,,CLR,0.00,VWS V14.01,2013-02-05 14:35:00,
2013-02-05 09:40:00,23.8,10.0,29.96,East,101,0.0,3.0,55,0.00,,CLR,0.00,VWS V14.01,2013-02-05 14:40:00,
2013-02-05 09:45:00,23.9,10.1,29.96,NE,49,1.0,1.0,55,0.00,,CLR,0.00,VWS V14.01,2013-02-05 14:45:00,
2013-02-05 09:50:00,23.9,9.7,29.96,NNE,27,2.0,4.0,54,0.00,,CLR,0.00,VWS V14.01,2013-02-05 14:50:00,
2013-02-05 09:55:00,24.1,9.5,29.97,WSW,252,3.0,4.0,53,0.00,,CLR,0.00,VWS V14.01,2013-02-05 14:55:00,
2013-02-05 10:00:00,24.4,10.6,29.97,NW,317,1.0,2.0,55,0.00,,CLR,0.00,VWS V14.01,2013-02-05 15:00:00,
2013-02-05 10:05:00,24.2,9.6,29.97,WNW,290,2.0,5.0,53,0.00,,CLR,0.00,VWS V14.01,2013-02-05 15:05:00,
2013-02-05 10:10:00,24.1,9.5,29.97,NNW,345,3.0,4.0,53,0.00,,CLR,0.00,VWS V14.01,2013-02-05 15:10:00,
2013-02-05 10:15:00,23.9,9.3,29.97,SW,229,0.0,2.0,53,0.00,,CLR,0.00,VWS V14.01,2013-02-05 15:15:00,
2013-02-05 10:20:00,23.9,9.3,29.97,SW,214,1.0,4.0,53,0.00,,CLR,0.00,VWS V14.01,2013-02-05 15:20:00,
2013-02-05 10:25:00,23.8,9.6,29.97,North,360,3.0,4.0,54,0.00,,CLR,0.00,VWS V14.01,2013-02-05 15:25:00,
2013-02-05 10:30:00,23.9,9.7,29.97,NW,314,1.0,5.0,54,0.00,,CLR,0.00,VWS V14.01,2013-02-05 15:30:00,
2013-02-05 10:35:00,24.1,9.9,29.97,SW,221,1.0,2.0,54,0.00,,CLR,0.00,VWS V14.01,2013-02-05 15:35:00,
2013-02-05 10:40:00,24.3,9.6,29.97,West,276,2.0,3.0,53,0.00,,CLR,0.00,VWS V14.01,2013-02-05 15:40:00,
2013-02-05 10:45:00,24.3,10.1,29.97,WNW,296,3.0,4.0,54,0.00,,CLR,0.00,VWS V14.01,2013-02-05 15:45:00,
2013-02-05 10:50:00,24.6,10.3,29.97,ESE,115,0.0,2.0,54,0.00,,CLR,0.00,VWS V14.01,2013-02-05 15:50:00,
2013-02-05 10:55:00,25.2,10.9,29.96,SW,217,0.0,1.0,54,0.00,,CLR,0.00,VWS V14.01,2013-02-05 15:55:00,
2013-02-05 11:00:00,25.7,10.5,29.96,SE,124,2.0,3.0,52,0.00,,CLR,0.00,VWS V14.01,2013-02-05 16:00:00,
2013-02-05 11:05:00,26.1,10.9,29.96,ENE,77,1.0,1.0,52,0.00,,CLR,0.00,VWS V14.01,2013-02-05 16:05:00,
2013-02-05 11:10:00,26.3,10.6,29.96,North,349,2.0,3.0,51,0.00,,CLR,0.00,VWS V14.01,2013-02-05 16:10:00,
2013-02-05 11:15:00,26.2,10.1,29.96,SSW,204,1.0,6.0,50,0.00,,CLR,0.00,VWS V14.01,2013-02-05 16:15:00,
2013-02-05 11:20:00,26.0,9.9,29.96,WSW,247,2.0,7.0,50,0.00,,CLR,0.00,VWS V14.01,2013-02-05 16:20:00,
2013-02-05 11:25:00,26.1,10.9,29.95,NNE,33,1.0,4.0,52,0.00,,CLR,0.00,VWS V14.01,2013-02-05 16:25:00,
2013-02-05 11:30:00,26.3,11.1,29.95,NE,49,4.0,4.0,52,0.00,,CLR,0.00,VWS V14.01,2013-02-05 16:30:00,
2013-02-05 11:35:00,26.2,10.6,29.95,NNE,28,3.0,4.0,51,0.00,,CLR,0.00,VWS V14.01,2013-02-05 16:35:00,
2013-02-05 11:40:00,26.6,10.9,29.95,NW,319,4.0,4.0,51,0.00,,CLR,0.00,VWS V14.01,2013-02-05 16:40:00,
2013-02-05 11:45:00,26.6,10.5,29.94,NNW,331,0.0,3.0,50,0.00,,CLR,0.00,VWS V14.01,2013-02-05 16:45:00,
2013-02-05 11:50:00,27.0,11.3,29.94,ENE,63,1.0,3.0,51,0.00,,CLR,0.00,VWS V14.01,2013-02-05 16:50:00,
2013-02-05 11:55:00,27.2,11.0,29.93,SSE,152,0.0,3.0,50,0.00,,CLR,0.00,VWS V14.01,2013-02-05 16:55:00,
2013-02-05 12:00:00,27.3,11.1,29.93,WSW,255,1.0,3.0,50,0.00,,CLR,0.00,VWS V14.01,2013-02-05 17:00:00,
2013-02-05 12:05:00,27.3,10.7,29.93,West,279,1.0,3.0,49,0.00,,CLR,0.00,VWS V14.01,2013-02-05 17:05:00,
2013-02-05 12:10:00,27.1,11.4,29.93,North,349,2.0,2.0,51,0.00,,CLR,0.00,VWS V14.01,2013-02-05 17:10:00,
2013-02-05 12:15:00,27.4,10.8,29.93,SSW,212,2.0,4.0,49,0.00,,CLR,0.00,VWS V14.01,2013-02-05 17:15:00,
2013-02-05 12:20:00,27.7,11.0,29.93,WNW,298,1.0,7.0,49,0.00,,CLR,0.00,VWS V14.01,2013-02-05 17:20:00,
2013-02-05 12:24:00,27.8,11.1,29.93,SSW,195,1.0,3.0,49,0.00,,CLR,0.00,VWS V14.01,2013-02-05 17:24:00,
2013-02-05 12:29:00,28.1,11.4,29.93,SE,138,1.0,5.0,49,0.00,,CLR,0.00,VWS V14.01,2013-02-05 17:29:00,
2013-02-05 12:30:00,28.7,12.0,29.91,West,277,1.0,2.0,49,0.00,,CLR,0.00,VWS V14.01,2013-02-05 17:30:00,
2013-02-05 12:34:00,28.3,11.1,29.93,SSW,195,2.0,5.0,48,0.00,,CLR,0.00,VWS V14.01,2013-02-05 17:34:00,
2013-02-05 12:40:00,28.1,10.9,29.93,NE,53,1.0,2.0,48,0.00,,CLR,0.00,VWS V14.01,2013-02-05 17:40:00,
2013-02-05 12:45:00,28.1,11.4,29.93,South,181,3.0,3.0,49,0.00,,CLR,0.00,VWS V14.01,2013-02-05 17:45:00,
2013-02-05 12:50:00,28.2,11.5,29.92,ENE,72,1.0,4.0,49,0.00,,CLR,0.00,VWS V14.01,2013-02-05 17:50:00,
2013-02-05 12:55:00,28.4,11.7,29.92,SSE,152,3.0,4.0,49,0.00,,CLR,0.00,VWS V14.01,2013-02-05 17:55:00,
2013-02-05 13:00:00,28.3,11.6,29.92,SW,220,1.0,2.0,49,0.00,,CLR,0.00,VWS V14.01,2013-02-05 18:00:00,
2013-02-05 13:05:00,28.4,11.2,29.92,SE,143,1.0,2.0,48,0.00,,CLR,0.00,VWS V14.01,2013-02-05 18:05:00,
2013-02-05 13:10:00,28.6,11.9,29.91,SE,142,1.0,2.0,49,0.00,,CLR,0.00,VWS V14.01,2013-02-05 18:10:00,
2013-02-05 13:15:00,28.7,12.0,29.91,ESE,118,2.0,3.0,49,0.00,,CLR,0.00,VWS V14.01,2013-02-05 18:15:00,
2013-02-05 13:20:00,28.6,11.9,29.91,ESE,114,1.0,3.0,49,0.00,,CLR,0.00,VWS V14.01,2013-02-05 18:20:00,
2013-02-05 13:25:00,28.8,11.6,29.91,ESE,115,1.0,2.0,48,0.00,,CLR,0.00,VWS V14.01,2013-02-05 18:25:00,
2013-02-05 13:30:00,28.7,12.0,29.91,SSW,195,0.0,4.0,49,0.00,,CLR,0.00,VWS V14.01,2013-02-05 18:30:00,
2013-02-05 13:35:00,28.8,11.6,29.91,SSW,198,0.0,1.0,48,0.00,,CLR,0.00,VWS V14.01,2013-02-05 18:35:00,
2013-02-05 13:40:00,28.6,11.4,29.91,ESE,121,2.0,5.0,48,0.00,,CLR,0.00,VWS V14.01,2013-02-05 18:40:00,
2013-02-05 13:45:00,28.4,11.7,29.91,East,94,3.0,4.0,49,0.00,,CLR,0.00,VWS V14.01,2013-02-05 18:45:00,
2013-02-05 13:50:00,28.4,12.1,29.91,NE,46,1.0,2.0,50,0.00,,CLR,0.00,VWS V14.01,2013-02-05 18:50:00,
2013-02-05 13:55:00,28.5,11.8,29.91,ESE,116,3.0,6.0,49,0.00,,CLR,0.00,VWS V14.01,2013-02-05 18:55:00,
2013-02-05 14:00:00,28.4,12.1,29.91,SSE,167,2.0,6.0,50,0.00,,CLR,0.00,VWS V14.01,2013-02-05 19:00:00,
2013-02-05 14:05:00,28.5,11.8,29.91,East,84,0.0,2.0,49,0.00,,CLR,0.00,VWS V14.01,2013-02-05 19:05:00,
2013-02-05 14:10:00,28.7,12.4,29.91,SE,146,3.0,5.0,50,0.00,,CLR,0.00,VWS V14.01,2013-02-05 19:10:00,
2013-02-05 14:15:00,28.6,11.9,29.91,South,185,4.0,6.0,49,0.00,,CLR,0.00,VWS V14.01,2013-02-05 19:15:00,
2013-02-05 14:20:00,28.7,12.4,29.91,SE,132,1.0,5.0,50,0.00,,CLR,0.00,VWS V14.01,2013-02-05 19:20:00,
2013-02-05 14:25:00,29.0,12.7,29.91,SSE,150,0.0,3.0,50,0.00,,CLR,0.00,VWS V14.01,2013-02-05 19:25:00,
2013-02-05 14:30:00,29.2,12.0,29.91,South,188,1.0,3.0,48,0.00,,CLR,0.00,VWS V14.01,2013-02-05 19:30:00,
2013-02-05 14:35:00,29.3,12.1,29.91,SE,146,5.0,6.0,48,0.00,,CLR,0.00,VWS V14.01,2013-02-05 19:35:00,
2013-02-05 14:40:00,29.2,12.4,29.91,SSE,148,6.0,8.0,49,0.00,,CLR,0.00,VWS V14.01,2013-02-05 19:40:00,
2013-02-05 14:45:00,29.0,12.2,29.91,SSE,160,6.0,6.0,49,0.00,,CLR,0.00,VWS V14.01,2013-02-05 19:45:00,
2013-02-05 14:50:00,29.3,12.5,29.91,SSE,165,0.0,4.0,49,0.00,,CLR,0.00,VWS V14.01,2013-02-05 19:50:00,
2013-02-05 14:55:00,29.7,12.4,29.90,SE,129,4.0,5.0,48,0.00,,CLR,0.00,VWS V14.01,2013-02-05 19:55:00,
2013-02-05 15:00:00,29.5,12.2,29.90,SE,145,0.0,6.0,48,0.00,,CLR,0.00,VWS V14.01,2013-02-05 20:00:00,
2013-02-05 15:05:00,29.6,12.8,29.90,SSE,148,2.0,2.0,49,0.00,,CLR,0.00,VWS V14.01,2013-02-05 20:05:00,
2013-02-05 15:10:00,29.5,12.2,29.90,South,185,1.0,5.0,48,0.00,,CLR,0.00,VWS V14.01,2013-02-05 20:10:00,
2013-02-05 15:15:00,29.6,12.8,29.90,SE,139,2.0,5.0,49,0.00,,CLR,0.00,VWS V14.01,2013-02-05 20:15:00,
2013-02-05 15:20:00,29.7,12.9,29.90,West,270,2.0,2.0,49,0.00,,CLR,0.00,VWS V14.01,2013-02-05 20:20:00,
2013-02-05 15:25:00,29.2,12.4,29.89,East,100,2.0,4.0,49,0.00,,CLR,0.00,VWS V14.01,2013-02-05 20:25:00,
2013-02-05 15:30:00,29.1,12.8,29.89,South,177,2.0,6.0,50,0.00,,CLR,0.00,VWS V14.01,2013-02-05 20:30:00,
2013-02-05 15:35:00,28.8,12.5,29.89,East,96,3.0,5.0,50,0.00,,CLR,0.00,VWS V14.01,2013-02-05 20:35:00,
2013-02-05 15:40:00,28.7,12.9,29.89,SE,139,1.0,2.0,51,0.00,,CLR,0.00,VWS V14.01,2013-02-05 20:40:00,
2013-02-05 15:45:00,28.7,12.4,29.89,ESE,114,3.0,5.0,50,0.00,,CLR,0.00,VWS V14.01,2013-02-05 20:45:00,
2013-02-05 15:50:00,28.5,12.7,29.89,SSE,148,1.0,5.0,51,0.00,,CLR,0.00,VWS V14.01,2013-02-05 20:50:00,
2013-02-05 15:55:00,28.6,13.2,29.89,SSE,156,2.0,3.0,52,0.00,,CLR,0.00,VWS V14.01,2013-02-05 20:55:00,
2013-02-05 16:00:00,28.7,13.3,29.89,SSW,201,2.0,3.0,52,0.00,,CLR,0.00,VWS V14.01,2013-02-05 21:00:00,
2013-02-05 16:05:00,28.6,13.2,29.89,South,172,2.0,3.0,52,0.00,,CLR,0.00,VWS V14.01,2013-02-05 21:05:00,
2013-02-05 16:10:00,28.5,13.1,29.89,ESE,121,2.0,4.0,52,0.00,,CLR,0.00,VWS V14.01,2013-02-05 21:10:00,
2013-02-05 16:15:00,28.2,12.9,29.89,South,191,2.0,4.0,52,0.00,,CLR,0.00,VWS V14.01,2013-02-05 21:15:00,
2013-02-05 16:20:00,28.0,13.1,29.89,SSW,195,0.0,0.0,53,0.00,,CLR,0.00,VWS V14.01,2013-02-05 21:20:00,
2013-02-05 16:25:00,27.7,12.8,29.89,ESE,102,1.0,3.0,53,0.00,,CLR,0.00,VWS V14.01,2013-02-05 21:25:00,
2013-02-05 16:30:00,27.6,12.7,29.89,ESE,109,1.0,3.0,53,0.00,,CLR,0.00,VWS V14.01,2013-02-05 21:30:00,
2013-02-05 16:35:00,27.5,13.1,29.89,SE,128,1.0,4.0,54,0.00,,CLR,0.00,VWS V14.01,2013-02-05 21:35:00,
2013-02-05 16:40:00,27.3,12.9,29.89,South,190,3.0,4.0,54,0.00,,CLR,0.00,VWS V14.01,2013-02-05 21:40:00,
2013-02-05 16:45:00,27.3,13.3,29.89,SE,136,1.0,5.0,55,0.00,,CLR,0.00,VWS V14.01,2013-02-05 21:45:00,
2013-02-05 16:50:00,27.2,13.2,29.90,ENE,77,4.0,4.0,55,0.00,,CLR,0.00,VWS V14.01,2013-02-05 21:50:00,
2013-02-05 16:55:00,27.1,13.5,29.90,SE,146,3.0,4.0,56,0.00,,CLR,0.00,VWS V14.01,2013-02-05 21:55:00,
2013-02-05 17:00:00,27.0,13.4,29.90,SE,128,1.0,4.0,56,0.00,,CLR,0.00,VWS V14.01,2013-02-05 22:00:00,
2013-02-05 17:05:00,26.9,13.3,29.90,ESE,114,3.0,4.0,56,0.00,,CLR,0.00,VWS V14.01,2013-02-05 22:05:00,
2013-02-05 17:10:00,26.8,13.6,29.89,ESE,120,2.0,3.0,57,0.00,,CLR,0.00,VWS V14.01,2013-02-05 22:10:00,
2013-02-05 17:15:00,26.7,13.5,29.89,SE,134,2.0,4.0,57,0.00,,CLR,0.00,VWS V14.01,2013-02-05 22:15:00,
2013-02-05 17:20:00,26.6,13.4,29.89,NE,53,4.0,4.0,57,0.00,,CLR,0.00,VWS V14.01,2013-02-05 22:20:00,
2013-02-05 17:25:00,26.6,13.8,29.89,ESE,109,3.0,3.0,58,0.00,,CLR,0.00,VWS V14.01,2013-02-05 22:25:00,
2013-02-05 17:30:00,26.5,13.3,29.88,SE,138,4.0,6.0,57,0.00,,CLR,0.00,VWS V14.01,2013-02-05 22:30:00,
2013-02-05 17:35:00,26.4,13.6,29.89,ESE,114,6.0,6.0,58,0.00,,CLR,0.00,VWS V14.01,2013-02-05 22:35:00,
2013-02-05 17:40:00,26.2,13.4,29.89,SE,134,4.0,5.0,58,0.00,,CLR,0.00,VWS V14.01,2013-02-05 22:40:00,
2013-02-05 17:45:00,26.1,13.8,29.89,East,87,3.0,6.0,59,0.00,,CLR,0.00,VWS V14.01,2013-02-05 22:45:00,
2013-02-05 17:50:00,26.1,14.1,29.89,SE,129,6.0,7.0,60,0.00,,CLR,0.00,VWS V14.01,2013-02-05 22:50:00,
2013-02-05 17:55:00,25.9,13.9,29.89,ESE,114,3.0,5.0,60,0.00,,CLR,0.00,VWS V14.01,2013-02-05 22:55:00,
2013-02-05 18:00:00,25.8,14.2,29.89,SSW,203,4.0,6.0,61,0.00,,CLR,0.00,VWS V14.01,2013-02-05 23:00:00,
2013-02-05 18:05:00,25.8,14.2,29.89,ESE,118,4.0,5.0,61,0.00,,CLR,0.00,VWS V14.01,2013-02-05 23:05:00,
2013-02-05 18:10:00,25.7,14.5,29.89,SE,129,3.0,5.0,62,0.00,,CLR,0.00,VWS V14.01,2013-02-05 23:10:00,
2013-02-05 18:15:00,25.6,14.4,29.89,ESE,105,4.0,6.0,62,0.00,,CLR,0.00,VWS V14.01,2013-02-05 23:15:00,
2013-02-05 18:20:00,25.5,14.3,29.90,SE,128,5.0,6.0,62,0.00,,CLR,0.00,VWS V14.01,2013-02-05 23:20:00,
2013-02-05 18:25:00,25.5,14.7,29.90,SE,142,4.0,5.0,63,0.00,,CLR,0.00,VWS V14.01,2013-02-05 23:25:00,
2013-02-05 18:30:00,25.4,14.6,29.90,SE,126,4.0,6.0,63,0.00,,CLR,0.00,VWS V14.01,2013-02-05 23:30:00,
2013-02-05 18:35:00,25.3,14.8,29.90,SE,128,4.0,5.0,64,0.00,,CLR,0.00,VWS V14.01,2013-02-05 23:35:00,
2013-02-05 18:40:00,25.3,14.8,29.90,ENE,61,2.0,5.0,64,0.00,,CLR,0.00,VWS V14.01,2013-02-05 23:40:00,
2013-02-05 18:45:00,25.2,15.1,29.90,East,85,3.0,6.0,65,0.00,,CLR,0.00,VWS V14.01,2013-02-05 23:45:00,
2013-02-05 18:50:00,25.1,15.0,29.90,SE,127,3.0,5.0,65,0.00,,CLR,0.00,VWS V14.01,2013-02-05 23:50:00,
2013-02-05 18:55:00,25.1,15.0,29.90,ESE,102,2.0,7.0,65,0.00,,CLR,0.00,VWS V14.01,2013-02-05 23:55:00,
2013-02-05 19:00:00,25.1,15.4,29.90,ESE,105,1.0,5.0,66,0.00,,CLR,0.00,VWS V14.01,2013-02-06 00:00:00,
2013-02-05 19:05:00,25.1,15.4,29.90,East,91,2.0,4.0,66,0.00,,CLR,0.00,VWS V14.01,2013-02-06 00:05:00,
2013-02-05 19:10:00,25.1,15.4,29.90,ESE,115,3.0,3.0,66,0.00,,CLR,0.00,VWS V14.01,2013-02-06 00:10:00,
2013-02-05 19:15:00,25.1,15.7,29.90,SE,129,3.0,5.0,67,0.00,,CLR,0.00,VWS V14.01,2013-02-06 00:15:00,
2013-02-05 19:20:00,25.1,15.7,29.90,SE,130,1.0,4.0,67,0.00,,CLR,0.00,VWS V14.01,2013-02-06 00:20:00,
2013-02-05 19:25:00,25.1,16.0,29.90,ESE,113,0.0,3.0,68,0.00,,CLR,0.00,VWS V14.01,2013-02-06 00:25:00,
2013-02-05 19:30:00,25.1,16.0,29.90,East,89,1.0,3.0,68,0.00,,CLR,0.00,VWS V14.01,2013-02-06 00:30:00,
2013-02-05 19:35:00,25.2,16.1,29.90,East,94,1.0,4.0,68,0.00,,CLR,0.00,VWS V14.01,2013-02-06 00:35:00,
2013-02-05 19:40:00,25.2,16.1,29.90,SE,131,2.0,2.0,68,0.00,,CLR,0.00,VWS V14.01,2013-02-06 00:40:00,
2013-02-05 19:45:00,25.2,16.5,29.90,ESE,106,3.0,5.0,69,0.00,,CLR,0.00,VWS V14.01,2013-02-06 00:45:00,
2013-02-05 19:50:00,25.3,16.6,29.90,SE,132,0.0,4.0,69,0.00,,CLR,0.00,VWS V14.01,2013-02-06 00:50:00,
2013-02-05 19:55:00,25.3,16.6,29.90,SSW,200,1.0,3.0,69,0.00,,CLR,0.00,VWS V14.01,2013-02-06 00:55:00,
2013-02-05 20:00:00,25.3,16.6,29.90,East,98,2.0,3.0,69,0.00,,CLR,0.00,VWS V14.01,2013-02-06 01:00:00,
2013-02-05 20:05:00,25.3,16.6,29.90,ESE,117,2.0,3.0,69,0.00,,CLR,0.00,VWS V14.01,2013-02-06 01:05:00,
2013-02-05 20:10:00,25.4,16.7,29.90,SE,129,1.0,3.0,69,0.00,,CLR,0.00,VWS V14.01,2013-02-06 01:10:00,
2013-02-05 20:15:00,25.4,16.7,29.91,ESE,122,0.0,2.0,69,0.00,,CLR,0.00,VWS V14.01,2013-02-06 01:15:00,
2013-02-05 20:20:00,25.4,17.0,29.91,SE,135,1.0,2.0,70,0.00,,CLR,0.00,VWS V14.01,2013-02-06 01:20:00,
2013-02-05 20:25:00,25.4,17.0,29.91,SE,129,0.0,2.0,70,0.00,,CLR,0.00,VWS V14.01,2013-02-06 01:25:00,
2013-02-05 20:30:00,25.4,17.0,29.91,SSE,155,3.0,3.0,70,0.00,,CLR,0.00,VWS V14.01,2013-02-06 01:30:00,
2013-02-05 20:35:00,25.4,17.0,29.91,ESE,117,1.0,3.0,70,0.00,,CLR,0.00,VWS V14.01,2013-02-06 01:35:00,
2013-02-05 20:40:00,25.4,17.0,29.91,South,171,0.0,3.0,70,0.00,,CLR,0.00,VWS V14.01,2013-02-06 01:40:00,
2013-02-05 20:45:00,25.3,16.9,29.90,SE,141,0.0,4.0,70,0.00,,CLR,0.00,VWS V14.01,2013-02-06 01:45:00,
2013-02-05 20:50:00,25.3,16.9,29.91,SSE,148,2.0,2.0,70,0.00,,CLR,0.00,VWS V14.01,2013-02-06 01:50:00,
2013-02-05 20:55:00,25.3,17.2,29.91,SSE,149,0.0,4.0,71,0.00,,CLR,0.00,VWS V14.01,2013-02-06 01:55:00,
2013-02-05 21:00:00,25.2,17.1,29.91,South,186,0.0,2.0,71,0.00,,CLR,0.00,VWS V14.01,2013-02-06 02:00:00,
2013-02-05 21:05:00,25.1,17.0,29.91,South,172,1.0,3.0,71,0.00,,CLR,0.00,VWS V14.01,2013-02-06 02:05:00,
2013-02-05 21:10:00,25.1,17.0,29.91,SE,129,1.0,2.0,71,0.00,,CLR,0.00,VWS V14.01,2013-02-06 02:10:00,
2013-02-05 21:15:00,25.0,16.9,29.91,SE,139,1.0,2.0,71,0.00,,CLR,0.00,VWS V14.01,2013-02-06 02:15:00,
2013-02-05 21:20:00,25.0,17.3,29.91,SE,146,2.0,2.0,72,0.00,,CLR,0.00,VWS V14.01,2013-02-06 02:20:00,
2013-02-05 21:25:00,25.0,17.3,29.91,SE,129,2.0,3.0,72,0.00,,CLR,0.00,VWS V14.01,2013-02-06 02:25:00,
2013-02-05 21:30:00,25.0,17.6,29.91,SE,134,3.0,5.0,73,0.00,,CLR,0.00,VWS V14.01,2013-02-06 02:30:00,
2013-02-05 21:35:00,25.0,17.9,29.91,SE,136,0.0,3.0,74,0.00,,CLR,0.00,VWS V14.01,2013-02-06 02:35:00,
2013-02-05 21:40:00,24.9,17.8,29.91,SSE,160,1.0,2.0,74,0.00,,CLR,0.00,VWS V14.01,2013-02-06 02:40:00,
2013-02-05 21:45:00,24.8,18.3,29.91,South,191,2.0,4.0,76,0.00,,CLR,0.00,VWS V14.01,2013-02-06 02:45:00,
2013-02-05 21:50:00,24.8,18.6,29.91,SE,129,2.0,3.0,77,0.00,,CLR,0.00,VWS V14.01,2013-02-06 02:50:00,
2013-02-05 21:55:00,24.7,18.5,29.90,SSW,193,0.0,4.0,77,0.00,,CLR,0.00,VWS V14.01,2013-02-06 02:55:00,
2013-02-05 22:00:00,24.6,18.7,29.90,South,170,2.0,3.0,78,0.00,,CLR,0.00,VWS V14.01,2013-02-06 03:00:00,
2013-02-05 22:05:00,24.6,18.7,29.90,SSE,152,0.0,1.0,78,0.00,,CLR,0.00,VWS V14.01,2013-02-06 03:05:00,
2013-02-05 22:10:00,24.6,19.0,29.90,SSE,152,0.0,0.0,79,0.00,,CLR,0.00,VWS V14.01,2013-02-06 03:10:00,
2013-02-05 22:15:00,24.7,19.4,29.90,SSE,152,0.0,0.0,80,0.00,,CLR,0.00,VWS V14.01,2013-02-06 03:15:00,
2013-02-05 22:20:00,24.6,19.3,29.90,SSE,153,0.0,0.0,80,0.00,,CLR,0.00,VWS V14.01,2013-02-06 03:20:00,
2013-02-05 22:25:00,24.6,19.3,29.90,SE,135,0.0,1.0,80,0.00,,CLR,0.00,VWS V14.01,2013-02-06 03:25:00,
2013-02-05 22:30:00,24.6,19.6,29.90,SE,134,0.0,1.0,81,0.00,,CLR,0.00,VWS V14.01,2013-02-06 03:30:00,
2013-02-05 22:35:00,24.5,19.5,29.89,SE,127,0.0,1.0,81,0.00,,CLR,0.00,VWS V14.01,2013-02-06 03:35:00,
2013-02-05 22:40:00,24.6,19.9,29.90,SE,127,0.0,0.0,82,0.00,,CLR,0.00,VWS V14.01,2013-02-06 03:40:00,
2013-02-05 22:45:00,24.5,19.8,29.89,SE,128,0.0,1.0,82,0.00,,CLR,0.00,VWS V14.01,2013-02-06 03:45:00,
2013-02-05 22:50:00,24.4,20.0,29.89,SE,128,1.0,1.0,83,0.00,,CLR,0.00,VWS V14.01,2013-02-06 03:50:00,
2013-02-05 22:55:00,24.4,20.0,29.89,SE,128,0.0,1.0,83,0.00,,CLR,0.00,VWS V14.01,2013-02-06 03:55:00,
2013-02-05 23:00:00,24.3,20.2,29.89,SE,128,0.0,1.0,84,0.00,,CLR,0.00,VWS V14.01,2013-02-06 04:00:00,
2013-02-05 23:05:00,24.3,20.2,29.89,SE,129,0.0,0.0,84,0.00,,CLR,0.00,VWS V14.01,2013-02-06 04:05:00,
2013-02-05 23:10:00,24.3,20.5,29.89,SE,128,0.0,0.0,85,0.00,,CLR,0.00,VWS V14.01,2013-02-06 04:10:00,
2013-02-05 23:15:00,24.3,20.5,29.89,SE,129,1.0,1.0,85,0.00,,CLR,0.00,VWS V14.01,2013-02-06 04:15:00,
2013-02-05 23:20:00,24.2,20.4,29.88,SE,128,0.0,0.0,85,0.00,,CLR,0.00,VWS V14.01,2013-02-06 04:20:00,
2013-02-05 23:25:00,24.1,20.5,29.89,SE,129,0.0,0.0,86,0.00,,CLR,0.00,VWS V14.01,2013-02-06 04:25:00,
2013-02-05 23:30:00,24.0,20.4,29.89,SE,128,0.0,1.0,86,0.00,,CLR,0.00,VWS V14.01,2013-02-06 04:30:00,
2013-02-05 23:35:00,23.9,20.3,29.89,SE,129,0.0,0.0,86,0.00,,CLR,0.00,VWS V14.01,2013-02-06 04:35:00,
2013-02-05 23:40:00,23.9,20.6,29.89,SE,128,0.0,0.0,87,0.00,,CLR,0.00,VWS V14.01,2013-02-06 04:40:00,
2013-02-05 23:45:00,23.8,20.5,29.89,SE,128,0.0,0.0,87,0.00,,CLR,0.00,VWS V14.01,2013-02-06 04:45:00,
2013-02-05 23:50:00,23.6,20.6,29.89,SE,129,0.0,0.0,88,0.00,,CLR,0.00,VWS V14.01,2013-02-06 04:50:00,
2013-02-05 23:55:00,23.6,20.6,29.89,SE,129,0.0,0.0,88,0.00,,CLR,0.00,VWS V14.01,2013-02-06 04:55:00,